Regional Weather Roundup
Issued by NWS Charleston, SC

Current Version | Previous Version | Graphics & Text | Print | Product List | Glossary On
Versions: 1 2 3 4 5 6 7 8 9 10 11 12 13 14 15 16 17 18 19 20 21 22 23 24 25 26 27 28 29 30 31 32 33 34 35 36 37 38 39 40 41 42 43 44 45 46 47 48 49 50
000
ASUS42 KCHS 232325
RWRCHS

REGIONAL WEATHER ROUNDUP
NATIONAL WEATHER SERVICE CHARLESTON SC
700 PM EDT THU OCT 23 2014

NOTE: "FAIR" INDICATES FEW OR NO CLOUDS BELOW 12,000 FEET WITH NO
SIGNIFICANT WEATHER AND/OR OBSTRUCTIONS TO VISIBILITY.

NOT ALL STATIONS ARE QUALITY CONTROLLED BY THE NATIONAL
WEATHER SERVICE. USE DATA WITH CAUTION...ESPECIALLY
DEWPOINT OBSERVATIONS.

SCZ027-030-031-034>040-042>050-240000-
...SOUTH CAROLINA...

CITY           SKY/WX    TMP DP  RH WIND       PRES   REMARKS
N CHARLESTON   CLEAR     65  46  50 W5        30.00R
WATERFRONT PRK   N/A     66 N/A N/A W3          N/A
FORT JOHNSON   NOT AVBL
JOHNS ISLAND   CLEAR     57  54  88 CALM      30.02R
PINOPOLIS      NOT AVBL
MONCKS CORNER  FAIR      57  55  94 CALM      30.00R
SUMMERVILLE    FAIR      57  52  82 CALM      30.01R
BEAUFORT MCAS  CLEAR     59  50  72 SW3       30.01R
BEAUFORT ARPT  FAIR      57  52  82 CALM      30.01R
HILTON HEAD IS CLEAR     63  50  63 CALM      30.02S
GEORGETOWN     NOT AVBL
WALTERBORO     CLEAR     55  52  88 CALM      30.02R
ORANGEBURG     CLEAR     60  43  53 CALM      30.01R
BARNWELL       FAIR      61  46  59 CALM      30.02R
AIKEN          FAIR      59  45  58 CALM      30.05R
MANNING        FAIR      57  52  82 CALM      30.01R
KINGSTREE      NOT AVBL
COLUMBIA       PTCLDY    63  44  50 CALM      30.00R
SUMTER         CLEAR     64  44  48 NW2       29.99R
FLORENCE       CLEAR     62  42  47 NW3       29.98R
MYRTLE BEACH   CLEAR     63  45  51 W6        29.98R
N MYRTLE BEACH CLEAR     59  49  69 CALM      29.96R

$$

GAZ063-065-086>088-099>101-113>116-118-119-134-136>141-150-240000-
...GEORGIA...

CITY           SKY/WX    TMP DP  RH WIND       PRES   REMARKS
SAVANNAH ARPT  PTCLDY    63  48  58 CALM      30.02R
HUNTER AAF     CLEAR     61  50  66 W2        30.00R
FORT STEWART   CLEAR     60  51  70 CALM      30.01R
STATESBORO     NOT AVBL
SYLVANIA       CLEAR     63  56  79 CALM      30.03R
CLAXTON        FAIR      59  54  82 CALM      30.02S
THOMSON        CLEAR     57  56  95 CALM      30.07R
AUGUSTA-BUSH   CLEAR     60  41  49 CALM      30.01R
AUGUSTA-DANIEL CLEAR     64  44  48 NW3       30.02R
SWAINSBORO     FAIR      63  50  63 MISG      30.03R
VIDALIA        CLEAR     61  50  67 CALM      30.02S
ALMA           CLEAR     62  46  55 N3        30.01R
WAYCROSS       CLEAR     63  53  71 CALM      30.02R
JESUP          FAIR      61  54  77 CALM      30.02R
BRUNSWICK      CLEAR     57  50  77 CALM      30.03R
SAINT SIMONS   CLEAR     63  50  62 E3        30.01R

$$

SCZ027-028-034-036>038-045-046-048>050-GAZ119-141-240000-
...LAKE AND SUPPLEMENTAL COASTAL OBSERVATIONS...

STATION/POSITION TIME  TEMP    WIND        PRES    WAVE   SWELL
                       AIR SEA DIR/SP/G            HT/PER HT/PER/DIR
                 (UTC) (F)     (DEG/KT/KT) (MB)    (FT/S) (FT/S/D)
UPR LAKE MARION  NOT AVBL
WINYAH BAY       2300   62     300/  2     1015.0S
LAKE MURRAY      2300   66     300/  3/  3 1015.2S
ACE BASIN NERRS  2300   60        CALM     1016.0S
FORT PULASKI     2300   63     190/  3/  4 1016.6R
SAPELO ISLAND    NOT AVBL

$$

ANZ835-935-AMZ111-154-330-350-352-354-374-450-454-472-240000-
...C-MAN AND BUOY OBSERVATIONS...

STATION/POSITION TIME  TEMP    WIND        PRES    WAVE   SWELL
                       AIR SEA DIR/SP/G            HT/PER HT/PER/DIR
                 (UTC) (F)     (DEG/KT/KT) (MB)    (FT/S) (FT/S/D)
FOLLY BEACH CMAN 2300   63     260/  3/  3 1016.5R
BUOY 41004       2300   68 78  300/ 10/ 16 1015.1R   2/ 5   2/10
BUOY 41008       2300   66 75   40/  6/  8 1016.2R   2/ 5   2/ 60/ 5
5E ST. MARYS GA  2300      76                N/A     3/ 6
FRYING PAN BUOY  2300   67 74  270/ 16/ 19 1014.5R   3/11   2/ 90/11
BUOY 41025       2300   65     300/ 17/ 21 1012.2R   5/ 5   2/ 40/ 8
CAPE LOOKOUT NC  2300   66     290/ 15/ 17 1013.0R
BUOY 41002       2235   70 78  290/ 12/ 16 1014.1R   7/11   7/360/11
BUOY 41010       2300   74 81   10/ 10/ 14 1014.7R   3/10   3/ 60/10
BUOY 41012       NOT AVBL
ST AUGUSTINE FL  2300   69      20/  9/ 10 1016.6R
CAPERS NEARSHORE NOT AVBL
FRIPP NEARSHORE  NOT AVBL


$$



USA.gov is the U.S. government's official web portal to all federal, state and local government web resources and services.